Погода в Чилакапе

Индонезия     7°29′44″S   109°00′16″E
темп.,
°C
ветер,
м/с
пор.,
м/с
влажн.,
%
обл.,
%
осадки,
мм/ч
давл.,
гПа
погр.,
м
23 мая, пн
пн2301:00+24ссв119423 0.0 100911
04:00+23с119457 0.1 100811
07:00+25сз12907 0.1 1009122
10:00+30ю0067100 0.0 1009884
13:00+31ю216094 0.4 10071337
16:00+27ююв2384100 4.7 1008136
19:00+25в1188100 7.1 101014
22:00+24с119090 0.6 101111
24 мая, вт
вт2401:00+24ссз119197 1.1 101011
04:00+23ссз119361 0.0 100919
07:00+25ссз118838 0.0 101082
10:00+30сз1167100 0.0 1010902
13:00+32юз1254100 0.0 10081502
16:00+29ююз126996 0.1 1008436
19:00+25вюв118572 0.1 101122
22:00+25с1187100 0.0 101211
25 мая, ср
ср2501:00+24ссз118988 0.1 101111
04:00+24ссз1191100 0.0 101013
07:00+25ссз0186100 0.1 101185
10:00+30ю116899 0.0 1011866
13:00+32зсз1258100 0.2 10081439
16:00+27ссз2579100 0.9 1008380
19:00+25ссз2489100 1.3 1010182
22:00+24с229298 0.8 101162
26 мая, чт
чт2601:00+23ссз2294100 3.0 101049
04:00+23ссз2396100 4.4 1009101
07:00+23ссз1295100 5.5 101078
10:00+25зсз1188100 0.2 1011202
13:00+26зсз118391 1.3 1008201
16:00+26ю0184100 2.9 100867
19:00+24сз119096 4.8 101013
22:00+23ссз129295 0.3 101137
27 мая, пт
пт2701:00+23ссв2294100 3.1 100975
04:00+22св1195100 5.0 100946
07:00+23всв1192100 5.3 101126
10:00+25в128183 0.2 1011355
13:00+24вюв2487100 0.2 1008245
16:00+25вюв2480100 0.0 1007390
19:00+23в1187100 0.0 100935
22:00+23сз0087100 0.0 101111